| time (UTC) | temp C | wind direction | speed KPH | gust KPH | rain 1hr cm | rain 24hr cm | rain mn cm | humidity % | barometer mb |
| 20260507221945 | 13 | 137 | 0.0 | 0.0 | 0.00 | 0.00 | 0.00 | 83 | 1013.6 |
| 20260507221444 | 13 | 136 | 0.0 | 0.0 | 0.00 | 0.00 | 0.00 | 82 | 1013.5 |
| 20260507220944 | 13 | 136 | 0.0 | 0.0 | 0.00 | 0.00 | 0.00 | 82 | 1013.5 |
| 20260507220444 | 13 | 136 | 0.0 | 0.0 | 0.00 | 0.00 | 0.00 | 83 | 1013.5 |
| 20260507215944 | 14 | 136 | 0.0 | 0.0 | 0.00 | 0.00 | 0.00 | 83 | 1013.4 |
| 20260507215443 | 14 | 137 | 0.0 | 0.0 | 0.00 | 0.00 | 0.00 | 82 | 1013.4 |
| 20260507214943 | 14 | 136 | 0.0 | 0.0 | 0.00 | 0.00 | 0.00 | 82 | 1013.4 |
| 20260507214443 | 14 | 136 | 0.0 | 0.0 | 0.00 | 0.00 | 0.00 | 82 | 1013.4 |
| 20260507213942 | 14 | 137 | 0.0 | 0.0 | 0.00 | 0.00 | 0.00 | 81 | 1013.3 |
| 20260507213442 | 14 | 137 | 0.0 | 0.0 | 0.00 | 0.00 | 0.00 | 81 | 1013.3 |
| 20260507212942 | 14 | 136 | 0.0 | 0.0 | 0.00 | 0.00 | 0.00 | 80 | 1013.2 |
| 20260507212442 | 14 | 136 | 0.0 | 0.0 | 0.00 | 0.00 | 0.00 | 80 | 1013.2 |
| 20260507211941 | 15 | 136 | 0.0 | 0.0 | 0.00 | 0.00 | 0.00 | 80 | 1013.1 |
| 20260507211441 | 15 | 136 | 0.0 | 0.0 | 0.00 | 0.00 | 0.00 | 80 | 1013.2 |
| 20260507210941 | 15 | 136 | 0.0 | 0.0 | 0.00 | 0.00 | 0.00 | 79 | 1013.1 |
| 20260507210440 | 15 | 137 | 0.0 | 0.0 | 0.00 | 0.00 | 0.00 | 79 | 1013.2 |
| 20260507205940 | 15 | 136 | 0.0 | 0.0 | 0.00 | 0.00 | 0.00 | 78 | 1013.2 |
| 20260507205440 | 15 | 136 | 0.0 | 0.0 | 0.00 | 0.00 | 0.00 | 78 | 1013.3 |
| 20260507204940 | 15 | 136 | 0.0 | 0.0 | 0.00 | 0.00 | 0.00 | 78 | 1013.4 |
| 20260507204439 | 15 | 136 | 0.0 | 0.0 | 0.00 | 0.00 | 0.00 | 78 | 1013.4 |
| 20260507203939 | 15 | 136 | 0.0 | 0.0 | 0.00 | 0.00 | 0.00 | 78 | 1013.4 |
| 20260507203439 | 15 | 122 | 0.0 | 0.0 | 0.00 | 0.00 | 0.00 | 77 | 1013.4 |
| 20260507202938 | 16 | 120 | 0.0 | 0.0 | 0.00 | 0.00 | 0.00 | 77 | 1013.4 |
| 20260507202438 | 16 | 121 | 0.0 | 0.0 | 0.00 | 0.00 | 0.00 | 76 | 1013.4 |
| 20260507201938 | 16 | 120 | 0.0 | 0.0 | 0.00 | 0.00 | 0.00 | 75 | 1013.4 |
| 20260507201438 | 16 | 120 | 0.0 | 0.0 | 0.00 | 0.00 | 0.00 | 75 | 1013.4 |
| 20260507200937 | 16 | 120 | 0.0 | 0.0 | 0.00 | 0.00 | 0.00 | 75 | 1013.3 |
| 20260507200437 | 16 | 120 | 0.0 | 0.0 | 0.00 | 0.00 | 0.00 | 74 | 1013.3 |
| 20260507195937 | 16 | 125 | 0.0 | 0.0 | 0.00 | 0.00 | 0.00 | 74 | 1013.4 |
| 20260507195436 | 16 | 125 | 0.0 | 0.0 | 0.00 | 0.00 | 0.00 | 73 | 1013.3 |
| 20260507194936 | 16 | 125 | 0.0 | 0.0 | 0.00 | 0.00 | 0.00 | 72 | 1013.2 |
| 20260507194436 | 17 | 125 | 0.0 | 0.0 | 0.00 | 0.00 | 0.00 | 72 | 1013.2 |
| 20260507193936 | 17 | 125 | 0.0 | 0.0 | 0.00 | 0.00 | 0.00 | 71 | 1013.1 |
| 20260507193435 | 17 | 125 | 0.0 | 0.0 | 0.00 | 0.00 | 0.00 | 70 | 1013.1 |
| 20260507192935 | 17 | 125 | 0.0 | 0.0 | 0.00 | 0.00 | 0.00 | 70 | 1013.0 |
| 20260507192435 | 17 | 125 | 0.0 | 0.0 | 0.00 | 0.00 | 0.00 | 69 | 1013.0 |
| 20260507191934 | 17 | 125 | 0.0 | 0.0 | 0.00 | 0.00 | 0.00 | 68 | 1012.7 |
| 20260507191434 | 18 | 125 | 0.0 | 0.0 | 0.00 | 0.00 | 0.00 | 68 | 1012.8 |
| 20260507190934 | 18 | 127 | 0.0 | 0.0 | 0.00 | 0.00 | 0.00 | 67 | 1012.7 |
| 20260507190434 | 18 | 117 | 0.0 | 0.0 | 0.00 | 0.00 | 0.00 | 67 | 1012.7 |
| 20260507185933 | 18 | 112 | 0.0 | 0.0 | 0.00 | 0.00 | 0.00 | 67 | 1012.7 |
| 20260507185433 | 18 | 111 | 0.0 | 0.0 | 0.00 | 0.00 | 0.00 | 66 | 1012.7 |
| 20260507184933 | 18 | 129 | 0.0 | 0.0 | 0.00 | 0.00 | 0.00 | 65 | 1012.6 |
| 20260507184432 | 18 | 124 | 0.0 | 0.0 | 0.00 | 0.00 | 0.00 | 64 | 1012.5 |
| 20260507183932 | 19 | 104 | 0.0 | 0.0 | 0.00 | 0.00 | 0.00 | 63 | 1012.4 |
| 20260507183432 | 19 | 115 | 0.0 | 0.0 | 0.00 | 0.00 | 0.00 | 63 | 1012.4 |
| 20260507182932 | 19 | 116 | 0.0 | 0.0 | 0.00 | 0.00 | 0.00 | 62 | 1012.4 |
| 20260507182431 | 19 | 131 | 0.0 | 0.0 | 0.00 | 0.00 | 0.00 | 61 | 1012.4 |
| 20260507181931 | 20 | 131 | 0.0 | 0.0 | 0.00 | 0.00 | 0.00 | 60 | 1012.2 |
| 20260507181431 | 20 | 133 | 0.0 | 0.0 | 0.00 | 0.00 | 0.00 | 60 | 1012.2 |
| 20260507180930 | 20 | 102 | 0.0 | 0.0 | 0.00 | 0.00 | 0.00 | 59 | 1012.2 |
| 20260507180430 | 20 | 110 | 0.0 | 0.0 | 0.00 | 0.00 | 0.00 | 58 | 1012.1 |
| 20260507175930 | 20 | 103 | 0.0 | 0.0 | 0.00 | 0.00 | 0.00 | 57 | 1012.0 |
| 20260507175430 | 20 | 75 | 0.0 | 0.0 | 0.00 | 0.00 | 0.00 | 56 | 1011.9 |
| 20260507174929 | 20 | 85 | 0.0 | 0.0 | 0.00 | 0.00 | 0.00 | 56 | 1011.9 |
| 20260507174429 | 20 | 112 | 0.0 | 0.0 | 0.00 | 0.00 | 0.00 | 56 | 1011.8 |
| 20260507173929 | 20 | 85 | 0.0 | 0.0 | 0.00 | 0.00 | 0.00 | 56 | 1011.8 |
| 20260507173428 | 20 | 107 | 0.0 | 0.0 | 0.00 | 0.00 | 0.00 | 56 | 1011.7 |
| 20260507172928 | 21 | 104 | 0.0 | 0.0 | 0.00 | 0.00 | 0.00 | 55 | 1011.7 |
| 20260507172428 | 21 | 101 | 0.0 | 0.0 | 0.00 | 0.00 | 0.00 | 55 | 1011.6 |
| 20260507171927 | 21 | 84 | 0.0 | 0.0 | 0.00 | 0.00 | 0.00 | 55 | 1011.7 |
| 20260507171427 | 21 | 91 | 0.0 | 0.0 | 0.00 | 0.00 | 0.00 | 54 | 1011.6 |
| 20260507170927 | 21 | 133 | 0.0 | 0.0 | 0.00 | 0.00 | 0.00 | 54 | 1011.6 |
| 20260507170427 | 21 | 114 | 0.0 | 0.0 | 0.00 | 0.00 | 0.00 | 54 | 1011.6 |
| 20260507165926 | 21 | 143 | 0.0 | 0.0 | 0.00 | 0.00 | 0.00 | 53 | 1011.7 |
| 20260507165426 | 21 | 122 | 0.0 | 0.0 | 0.00 | 0.00 | 0.00 | 53 | 1011.6 |
| 20260507164926 | 21 | 118 | 0.0 | 0.0 | 0.00 | 0.00 | 0.00 | 52 | 1011.6 |
| 20260507164425 | 21 | 98 | 0.0 | 0.0 | 0.00 | 0.00 | 0.00 | 51 | 1011.6 |
| 20260507163925 | 21 | 83 | 0.0 | 0.0 | 0.00 | 0.00 | 0.00 | 50 | 1011.5 |
| 20260507163425 | 21 | 117 | 0.0 | 0.0 | 0.00 | 0.00 | 0.00 | 50 | 1011.4 |
| 20260507162925 | 21 | 109 | 0.0 | 0.0 | 0.00 | 0.00 | 0.00 | 49 | 1011.4 |
| 20260507162424 | 21 | 138 | 0.0 | 0.0 | 0.00 | 0.00 | 0.00 | 49 | 1011.5 |
| 20260507161924 | 21 | 91 | 0.0 | 0.0 | 0.00 | 0.00 | 0.00 | 49 | 1011.5 |
| 20260507161424 | 21 | 118 | 0.0 | 0.0 | 0.00 | 0.00 | 0.00 | 49 | 1011.5 |
| 20260507160923 | 22 | 106 | 0.0 | 0.0 | 0.00 | 0.00 | 0.00 | 48 | 1011.5 |
| 20260507160423 | 22 | 131 | 0.0 | 0.0 | 0.00 | 0.00 | 0.00 | 49 | 1011.5 |
| 20260507155923 | 22 | 80 | 0.0 | 0.0 | 0.00 | 0.00 | 0.00 | 49 | 1011.5 |
| 20260507155423 | 22 | 123 | 0.0 | 0.0 | 0.00 | 0.00 | 0.00 | 49 | 1011.5 |
| 20260507154922 | 22 | 122 | 0.0 | 0.0 | 0.00 | 0.00 | 0.00 | 50 | 1011.6 |
| 20260507154422 | 21 | 141 | 0.0 | 0.0 | 0.00 | 0.00 | 0.00 | 50 | 1011.6 |
| 20260507153922 | 21 | 116 | 0.0 | 0.0 | 0.00 | 0.00 | 0.00 | 49 | 1011.7 |
| 20260507153421 | 21 | 104 | 0.0 | 0.0 | 0.00 | 0.00 | 0.00 | 51 | 1011.6 |
| 20260507152921 | 21 | 72 | 0.0 | 0.0 | 0.00 | 0.00 | 0.00 | 50 | 1011.6 |
| 20260507152421 | 22 | 129 | 0.0 | 0.0 | 0.00 | 0.00 | 0.00 | 50 | 1011.7 |
| 20260507151921 | 22 | 117 | 0.0 | 0.0 | 0.00 | 0.00 | 0.00 | 50 | 1011.8 |
| 20260507151420 | 22 | 85 | 0.0 | 0.0 | 0.00 | 0.00 | 0.00 | 50 | 1011.8 |
| 20260507150920 | 22 | 194 | 0.0 | 0.0 | 0.00 | 0.00 | 0.00 | 49 | 1011.9 |
| 20260507150420 | 22 | 66 | 0.0 | 0.0 | 0.00 | 0.00 | 0.00 | 49 | 1011.9 |
| 20260507145919 | 22 | 103 | 0.0 | 0.0 | 0.00 | 0.00 | 0.00 | 49 | 1011.9 |
| 20260507145419 | 22 | 85 | 0.0 | 0.0 | 0.00 | 0.00 | 0.00 | 49 | 1011.8 |
| 20260507144919 | 22 | 154 | 0.0 | 0.0 | 0.00 | 0.00 | 0.00 | 50 | 1011.8 |
| 20260507144419 | 21 | 86 | 0.0 | 0.0 | 0.00 | 0.00 | 0.00 | 50 | 1011.9 |
| 20260507143918 | 21 | 115 | 0.0 | 0.0 | 0.00 | 0.00 | 0.00 | 49 | 1011.9 |
| 20260507143418 | 21 | 98 | 0.0 | 0.0 | 0.00 | 0.00 | 0.00 | 48 | 1011.8 |
| 20260507142918 | 22 | 130 | 0.0 | 0.0 | 0.00 | 0.00 | 0.00 | 47 | 1011.8 |
| 20260507142417 | 22 | 131 | 0.0 | 0.0 | 0.00 | 0.00 | 0.00 | 45 | 1011.8 |
| 20260507141918 | 22 | 108 | 0.0 | 0.0 | 0.00 | 0.00 | 0.00 | 46 | 1011.7 |
| 20260507141417 | 22 | 129 | 0.0 | 0.0 | 0.00 | 0.00 | 0.00 | 44 | 1011.8 |
| 20260507140917 | 22 | 137 | 0.0 | 0.0 | 0.00 | 0.00 | 0.00 | 45 | 1011.7 |
| 20260507140416 | 22 | 110 | 0.0 | 0.0 | 0.00 | 0.00 | 0.00 | 45 | 1011.8 |
| 20260507135916 | 22 | 84 | 0.0 | 0.0 | 0.00 | 0.00 | 0.00 | 44 | 1011.8 |
| 20260507135416 | 22 | 78 | 0.0 | 0.0 | 0.00 | 0.00 | 0.00 | 41 | 1011.8 |
| 20260507134915 | 22 | 109 | 0.0 | 0.0 | 0.00 | 0.00 | 0.00 | 42 | 1011.8 |
| 20260507134415 | 22 | 134 | 0.0 | 0.0 | 0.00 | 0.00 | 0.00 | 43 | 1011.9 |
| 20260507133915 | 22 | 120 | 0.0 | 0.0 | 0.00 | 0.00 | 0.00 | 43 | 1011.9 |
| 20260507133415 | 22 | 114 | 0.0 | 0.0 | 0.00 | 0.00 | 0.00 | 42 | 1011.9 |
| 20260507132914 | 22 | 35 | 0.0 | 0.0 | 0.00 | 0.00 | 0.00 | 41 | 1011.9 |
| 20260507132414 | 22 | 350 | 0.0 | 0.0 | 0.00 | 0.00 | 0.00 | 41 | 1011.9 |
| 20260507131914 | 22 | 149 | 0.0 | 0.0 | 0.00 | 0.00 | 0.00 | 40 | 1012.0 |
| 20260507131413 | 22 | 105 | 0.0 | 0.0 | 0.00 | 0.00 | 0.00 | 42 | 1012.0 |
| 20260507130913 | 22 | 130 | 0.0 | 0.0 | 0.00 | 0.00 | 0.00 | 42 | 1012.0 |
| 20260507130413 | 22 | 112 | 0.0 | 0.0 | 0.00 | 0.00 | 0.00 | 42 | 1012.0 |
| 20260507125913 | 22 | 166 | 0.0 | 0.0 | 0.00 | 0.00 | 0.00 | 42 | 1012.1 |
| 20260507125412 | 22 | 45 | 0.0 | 0.0 | 0.00 | 0.00 | 0.00 | 41 | 1012.1 |
| 20260507124912 | 22 | 350 | 0.0 | 0.0 | 0.00 | 0.00 | 0.00 | 41 | 1012.1 |
| 20260507124412 | 22 | 191 | 0.0 | 0.0 | 0.00 | 0.00 | 0.00 | 41 | 1012.1 |
| 20260507123911 | 21 | 193 | 0.0 | 0.0 | 0.00 | 0.00 | 0.00 | 41 | 1012.1 |
| 20260507123411 | 21 | 185 | 0.0 | 0.0 | 0.00 | 0.00 | 0.00 | 40 | 1012.2 |
| 20260507122911 | 21 | 354 | 0.0 | 0.0 | 0.00 | 0.00 | 0.00 | 42 | 1012.1 |
| 20260507122410 | 21 | 81 | 0.0 | 0.0 | 0.00 | 0.00 | 0.00 | 40 | 1012.3 |
| 20260507121910 | 21 | 23 | 0.0 | 0.0 | 0.00 | 0.00 | 0.00 | 41 | 1012.3 |
| 20260507121410 | 21 | 22 | 0.0 | 0.0 | 0.00 | 0.00 | 0.00 | 40 | 1012.3 |
| 20260507120910 | 22 | 347 | 0.0 | 0.0 | 0.00 | 0.00 | 0.00 | 41 | 1012.3 |
| 20260507120409 | 21 | 304 | 0.0 | 0.0 | 0.00 | 0.00 | 0.00 | 44 | 1012.4 |
| 20260507115909 | 21 | 305 | 0.0 | 0.0 | 0.00 | 0.08 | 0.00 | 43 | 1012.4 |
| 20260507115409 | 21 | 55 | 0.0 | 0.0 | 0.00 | 0.08 | 0.00 | 43 | 1012.4 |
| 20260507114908 | 21 | 16 | 0.0 | 0.0 | 0.00 | 0.08 | 0.00 | 42 | 1012.5 |
| 20260507114408 | 21 | 18 | 0.0 | 0.0 | 0.00 | 0.08 | 0.00 | 42 | 1012.6 |
| 20260507113908 | 21 | 18 | 0.0 | 0.0 | 0.00 | 0.08 | 0.00 | 43 | 1012.6 |
| 20260507113408 | 21 | 349 | 0.0 | 0.0 | 0.00 | 0.08 | 0.00 | 44 | 1012.7 |
| 20260507112907 | 21 | 19 | 0.0 | 0.0 | 0.00 | 0.08 | 0.00 | 42 | 1012.7 |
| 20260507112407 | 21 | 18 | 0.0 | 0.0 | 0.00 | 0.08 | 0.00 | 42 | 1012.8 |
| 20260507111907 | 21 | 322 | 0.0 | 0.0 | 0.00 | 0.08 | 0.00 | 43 | 1012.8 |
| 20260507111406 | 21 | 344 | 0.0 | 0.0 | 0.00 | 0.08 | 0.00 | 42 | 1012.8 |
| 20260507110906 | 21 | 8 | 0.0 | 0.0 | 0.00 | 0.08 | 0.00 | 44 | 1012.9 |
| 20260507110406 | 21 | 321 | 0.0 | 0.0 | 0.00 | 0.08 | 0.00 | 43 | 1012.9 |
| 20260507105906 | 20 | 9 | 0.0 | 0.0 | 0.00 | 0.08 | 0.00 | 43 | 1013.0 |
| 20260507105405 | 20 | 10 | 0.0 | 0.0 | 0.00 | 0.08 | 0.00 | 47 | 1013.0 |
| 20260507104905 | 20 | 51 | 0.0 | 0.0 | 0.00 | 0.08 | 0.00 | 49 | 1013.1 |
| 20260507104405 | 20 | 14 | 0.0 | 0.0 | 0.00 | 0.08 | 0.00 | 49 | 1013.2 |
| 20260507103904 | 20 | 359 | 0.0 | 0.0 | 0.00 | 0.08 | 0.00 | 51 | 1013.1 |
| 20260507103404 | 20 | 47 | 0.0 | 0.0 | 0.00 | 0.08 | 0.00 | 49 | 1013.1 |
| 20260507102904 | 20 | 49 | 0.0 | 0.0 | 0.00 | 0.08 | 0.00 | 50 | 1013.2 |
| 20260507102404 | 20 | 66 | 0.0 | 0.0 | 0.00 | 0.08 | 0.00 | 52 | 1013.2 |
| 20260507101903 | 20 | 87 | 0.0 | 0.0 | 0.00 | 0.08 | 0.00 | 51 | 1013.2 |
| 20260507101403 | 20 | 333 | 0.0 | 0.0 | 0.00 | 0.08 | 0.00 | 50 | 1013.3 |
| 20260507100903 | 20 | 359 | 0.0 | 0.0 | 0.00 | 0.08 | 0.00 | 50 | 1013.3 |
| 20260507100402 | 20 | 359 | 0.0 | 0.0 | 0.00 | 0.08 | 0.00 | 52 | 1013.3 |
| 20260507095902 | 20 | 32 | 0.0 | 0.0 | 0.00 | 0.08 | 0.00 | 51 | 1013.3 |
| 20260507095402 | 20 | 21 | 0.0 | 0.0 | 0.00 | 0.08 | 0.00 | 53 | 1013.3 |
| 20260507094902 | 20 | 52 | 0.0 | 0.0 | 0.00 | 0.08 | 0.00 | 51 | 1013.4 |
| 20260507094401 | 20 | 335 | 0.0 | 0.0 | 0.00 | 0.08 | 0.00 | 50 | 1013.4 |
| 20260507093901 | 20 | 14 | 0.0 | 0.0 | 0.00 | 0.08 | 0.00 | 50 | 1013.4 |
| 20260507093401 | 20 | 4 | 0.0 | 0.0 | 0.00 | 0.08 | 0.00 | 52 | 1013.4 |
| 20260507092900 | 20 | 4 | 0.0 | 0.0 | 0.00 | 0.08 | 0.00 | 51 | 1013.4 |
| 20260507092400 | 19 | 4 | 0.0 | 0.0 | 0.00 | 0.08 | 0.00 | 51 | 1013.5 |
| 20260507091900 | 19 | 8 | 0.0 | 0.0 | 0.00 | 0.08 | 0.00 | 53 | 1013.5 |
| 20260507091400 | 18 | 16 | 0.0 | 0.0 | 0.00 | 0.08 | 0.00 | 54 | 1013.5 |
| 20260507090859 | 18 | 10 | 0.0 | 0.0 | 0.00 | 0.08 | 0.00 | 54 | 1013.4 |
| 20260507090359 | 18 | 8 | 0.0 | 0.0 | 0.00 | 0.08 | 0.00 | 55 | 1013.4 |
| 20260507085859 | 18 | 18 | 0.0 | 0.0 | 0.00 | 0.08 | 0.00 | 54 | 1013.4 |
| 20260507085358 | 19 | 8 | 0.0 | 0.0 | 0.00 | 0.08 | 0.00 | 54 | 1013.4 |
| 20260507084858 | 18 | 354 | 0.0 | 0.0 | 0.00 | 0.08 | 0.00 | 55 | 1013.3 |
| 20260507084358 | 18 | 4 | 0.0 | 0.0 | 0.00 | 0.08 | 0.00 | 55 | 1013.3 |
| 20260507083858 | 18 | 12 | 0.0 | 0.0 | 0.00 | 0.08 | 0.00 | 55 | 1013.3 |
| 20260507083357 | 18 | 30 | 0.0 | 0.0 | 0.00 | 0.08 | 0.00 | 54 | 1013.3 |
| 20260507082857 | 18 | 31 | 0.0 | 0.0 | 0.00 | 0.08 | 0.00 | 56 | 1013.3 |
| 20260507082357 | 18 | 31 | 0.0 | 0.0 | 0.00 | 0.08 | 0.00 | 54 | 1013.3 |
| 20260507081856 | 18 | 8 | 0.0 | 0.0 | 0.00 | 0.08 | 0.00 | 54 | 1013.2 |
| 20260507081356 | 18 | 148 | 0.0 | 0.0 | 0.00 | 0.08 | 0.00 | 53 | 1013.1 |
| 20260507080856 | 18 | 150 | 0.0 | 0.0 | 0.00 | 0.08 | 0.00 | 53 | 1013.2 |
| 20260507080356 | 19 | 233 | 0.0 | 0.0 | 0.00 | 0.08 | 0.00 | 55 | 1013.1 |
| 20260507075855 | 18 | 226 | 0.0 | 0.0 | 0.00 | 0.23 | 0.00 | 55 | 1013.1 |
| 20260507075355 | 18 | 226 | 0.0 | 0.0 | 0.00 | 0.23 | 0.00 | 55 | 1013.1 |
| 20260507074855 | 18 | 226 | 0.0 | 0.0 | 0.00 | 0.23 | 0.00 | 55 | 1013.1 |
| 20260507074354 | 18 | 226 | 0.0 | 0.0 | 0.00 | 0.23 | 0.00 | 53 | 1013.0 |
| 20260507073854 | 18 | 232 | 0.0 | 0.0 | 0.00 | 0.23 | 0.00 | 54 | 1013.0 |
| 20260507073354 | 18 | 232 | 0.0 | 0.0 | 0.00 | 0.23 | 0.00 | 55 | 1013.0 |
| 20260507072854 | 18 | 232 | 0.0 | 0.0 | 0.00 | 0.23 | 0.00 | 55 | 1013.0 |
| 20260507072353 | 18 | 232 | 0.0 | 0.0 | 0.00 | 0.23 | 0.00 | 56 | 1013.0 |
| 20260507071853 | 17 | 232 | 0.0 | 0.0 | 0.00 | 0.23 | 0.00 | 56 | 1013.0 |
| 20260507071353 | 17 | 232 | 0.0 | 0.0 | 0.00 | 0.23 | 0.00 | 58 | 1013.0 |
| 20260507070852 | 17 | 232 | 0.0 | 0.0 | 0.00 | 0.23 | 0.00 | 58 | 1012.9 |
| 20260507070352 | 17 | 231 | 0.0 | 0.0 | 0.00 | 0.23 | 0.00 | 59 | 1012.8 |
| 20260507065852 | 17 | 230 | 0.0 | 0.0 | 0.00 | 0.33 | 0.00 | 58 | 1012.8 |
| 20260507065352 | 17 | 206 | 0.0 | 0.0 | 0.00 | 0.33 | 0.00 | 58 | 1012.8 |
| 20260507064851 | 17 | 226 | 0.0 | 0.0 | 0.00 | 0.33 | 0.00 | 60 | 1012.8 |
| 20260507064351 | 17 | 226 | 0.0 | 0.0 | 0.00 | 0.33 | 0.00 | 59 | 1012.7 |
| 20260507063851 | 17 | 220 | 0.0 | 0.0 | 0.00 | 0.33 | 0.00 | 60 | 1012.7 |
| 20260507063350 | 17 | 226 | 0.0 | 0.0 | 0.00 | 0.33 | 0.00 | 60 | 1012.7 |
| 20260507062850 | 16 | 226 | 0.0 | 0.0 | 0.00 | 0.33 | 0.00 | 61 | 1012.7 |
| 20260507062350 | 16 | 226 | 0.0 | 0.0 | 0.00 | 0.33 | 0.00 | 61 | 1012.6 |
| 20260507061850 | 16 | 218 | 0.0 | 0.0 | 0.00 | 0.33 | 0.00 | 62 | 1012.5 |
| 20260507061349 | 16 | 213 | 0.0 | 0.0 | 0.00 | 0.33 | 0.00 | 63 | 1012.6 |
| 20260507060849 | 16 | 222 | 0.0 | 0.0 | 0.00 | 0.33 | 0.00 | 65 | 1012.4 |
| 20260507060349 | 16 | 222 | 0.0 | 0.0 | 0.00 | 0.33 | 0.00 | 65 | 1012.4 |
| 20260507055848 | 15 | 222 | 0.0 | 0.0 | 0.00 | 0.76 | 0.00 | 66 | 1012.3 |
| 20260507055348 | 15 | 212 | 0.0 | 0.0 | 0.00 | 0.76 | 0.00 | 67 | 1012.3 |
| 20260507054848 | 15 | 214 | 0.0 | 0.0 | 0.00 | 0.76 | 0.00 | 67 | 1012.3 |
| 20260507054347 | 15 | 214 | 0.0 | 0.0 | 0.00 | 0.76 | 0.00 | 68 | 1012.3 |
| 20260507053847 | 15 | 212 | 0.0 | 0.0 | 0.00 | 0.76 | 0.00 | 69 | 1012.3 |
| 20260507053347 | 14 | 211 | 0.0 | 0.0 | 0.00 | 0.76 | 0.00 | 69 | 1012.2 |
| 20260507052847 | 14 | 218 | 0.0 | 0.0 | 0.00 | 0.76 | 0.00 | 70 | 1012.1 |
| 20260507052346 | 13 | 212 | 0.0 | 0.0 | 0.00 | 0.76 | 0.00 | 71 | 1012.1 |
| 20260507051846 | 13 | 210 | 0.0 | 0.0 | 0.00 | 0.76 | 0.00 | 72 | 1012.1 |
| 20260507051346 | 13 | 212 | 0.0 | 0.0 | 0.00 | 0.76 | 0.00 | 73 | 1012.1 |
| 20260507050845 | 13 | 205 | 0.0 | 0.0 | 0.00 | 0.76 | 0.00 | 74 | 1012.0 |
| 20260507050345 | 13 | 206 | 0.0 | 0.0 | 0.00 | 0.76 | 0.00 | 76 | 1012.0 |
| 20260507045845 | 12 | 230 | 0.0 | 0.0 | 0.00 | 1.07 | 0.00 | 77 | 1011.9 |
| 20260507045345 | 12 | 235 | 0.0 | 0.0 | 0.00 | 1.07 | 0.00 | 78 | 1011.8 |
| 20260507044844 | 12 | 241 | 0.0 | 0.0 | 0.00 | 1.07 | 0.00 | 79 | 1011.8 |
| 20260507044344 | 12 | 241 | 0.0 | 0.0 | 0.00 | 1.07 | 0.00 | 79 | 1011.7 |
| 20260507043844 | 12 | 241 | 0.0 | 0.0 | 0.00 | 1.07 | 0.00 | 79 | 1011.7 |
| 20260507043343 | 12 | 241 | 0.0 | 0.0 | 0.00 | 1.07 | 0.00 | 78 | 1011.6 |
| 20260507042843 | 12 | 241 | 0.0 | 0.0 | 0.00 | 1.07 | 0.00 | 78 | 1011.6 |
| 20260507042343 | 12 | 241 | 0.0 | 0.0 | 0.00 | 1.07 | 0.00 | 77 | 1011.6 |
| 20260507041843 | 12 | 241 | 0.0 | 0.0 | 0.00 | 1.07 | 0.00 | 77 | 1011.6 |
| 20260507041342 | 12 | 247 | 0.0 | 0.0 | 0.00 | 1.07 | 0.00 | 77 | 1011.6 |
| 20260507040842 | 12 | 246 | 0.0 | 0.0 | 0.00 | 1.07 | 0.00 | 77 | 1011.5 |
| 20260507040342 | 12 | 246 | 0.0 | 0.0 | 0.00 | 1.07 | 0.00 | 77 | 1011.5 |
| 20260507035841 | 12 | 247 | 0.0 | 0.0 | 0.00 | 1.75 | 0.00 | 77 | 1011.5 |
| 20260507035341 | 12 | 247 | 0.0 | 0.0 | 0.00 | 1.75 | 0.00 | 77 | 1011.4 |
| 20260507034841 | 12 | 247 | 0.0 | 0.0 | 0.00 | 1.75 | 0.00 | 77 | 1011.3 |
| 20260507034341 | 12 | 241 | 0.0 | 0.0 | 0.00 | 1.75 | 0.00 | 77 | 1011.3 |
| 20260507033840 | 12 | 239 | 0.0 | 0.0 | 0.00 | 1.75 | 0.00 | 76 | 1011.3 |
| 20260507033340 | 12 | 240 | 0.0 | 0.0 | 0.00 | 1.75 | 0.00 | 76 | 1011.3 |
| 20260507032840 | 12 | 224 | 0.0 | 0.0 | 0.00 | 1.75 | 0.00 | 76 | 1011.3 |
| 20260507032339 | 13 | 223 | 0.0 | 0.0 | 0.00 | 1.75 | 0.00 | 76 | 1011.3 |
| 20260507031839 | 13 | 233 | 0.0 | 0.0 | 0.00 | 1.75 | 0.00 | 75 | 1011.2 |
| 20260507031339 | 13 | 233 | 0.0 | 0.0 | 0.00 | 1.75 | 0.00 | 75 | 1011.2 |
| 20260507030839 | 13 | 233 | 0.0 | 0.0 | 0.00 | 1.75 | 0.00 | 75 | 1011.2 |
| 20260507030338 | 13 | 231 | 0.0 | 0.0 | 0.00 | 1.75 | 0.00 | 75 | 1011.2 |
| 20260507025838 | 13 | 233 | 0.0 | 0.0 | 0.00 | 1.93 | 0.00 | 74 | 1011.2 |
| 20260507025338 | 13 | 209 | 0.0 | 0.0 | 0.00 | 1.93 | 0.00 | 74 | 1011.2 |
| 20260507024837 | 13 | 209 | 0.0 | 0.0 | 0.00 | 1.93 | 0.00 | 74 | 1011.2 |
| 20260507024337 | 13 | 209 | 0.0 | 0.0 | 0.00 | 1.93 | 0.00 | 74 | 1011.1 |
| 20260507023837 | 13 | 220 | 0.0 | 0.0 | 0.00 | 1.93 | 0.00 | 74 | 1011.1 |
| 20260507023337 | 13 | 206 | 0.0 | 0.0 | 0.00 | 1.93 | 0.00 | 74 | 1011.1 |
| 20260507022836 | 13 | 165 | 0.0 | 0.0 | 0.00 | 1.93 | 0.00 | 74 | 1011.1 |
| 20260507022336 | 13 | 174 | 0.0 | 0.0 | 0.00 | 1.93 | 0.00 | 74 | 1011.1 |
| 20260507021836 | 13 | 186 | 0.0 | 0.0 | 0.00 | 1.93 | 0.00 | 73 | 1011.1 |
| 20260507021335 | 13 | 212 | 0.0 | 0.0 | 0.00 | 1.93 | 0.00 | 73 | 1011.1 |
| 20260507020835 | 13 | 213 | 0.0 | 0.0 | 0.00 | 1.93 | 0.00 | 73 | 1011.1 |
| 20260507020335 | 13 | 212 | 0.0 | 0.0 | 0.00 | 1.93 | 0.00 | 73 | 1011.2 |
| 20260507015835 | 13 | 212 | 0.0 | 0.0 | 0.00 | 2.16 | 0.00 | 73 | 1011.0 |
| 20260507015334 | 13 | 216 | 0.0 | 0.0 | 0.00 | 2.16 | 0.00 | 73 | 1011.0 |
| 20260507014834 | 13 | 207 | 0.0 | 0.0 | 0.00 | 2.16 | 0.00 | 74 | 1011.0 |
| 20260507014334 | 13 | 208 | 0.0 | 0.0 | 0.00 | 2.16 | 0.00 | 75 | 1010.9 |
| 20260507013833 | 13 | 213 | 0.0 | 0.0 | 0.00 | 2.16 | 0.00 | 76 | 1010.9 |
| 20260507013333 | 13 | 199 | 0.0 | 0.0 | 0.00 | 2.16 | 0.00 | 78 | 1010.9 |
| 20260507012833 | 13 | 211 | 0.0 | 0.0 | 0.00 | 2.16 | 0.00 | 78 | 1010.8 |
| 20260507012333 | 13 | 211 | 0.0 | 0.0 | 0.00 | 2.16 | 0.00 | 77 | 1010.8 |
| 20260507011832 | 13 | 211 | 0.0 | 0.0 | 0.00 | 2.16 | 0.00 | 76 | 1010.8 |
| 20260507011332 | 13 | 211 | 0.0 | 0.0 | 0.00 | 2.16 | 0.00 | 76 | 1010.8 |
| 20260507010832 | 13 | 211 | 0.0 | 0.0 | 0.00 | 2.16 | 0.00 | 75 | 1010.8 |
| 20260507010331 | 13 | 211 | 0.0 | 0.0 | 0.00 | 2.16 | 0.00 | 74 | 1010.8 |
| 20260507005831 | 14 | 211 | 0.0 | 0.0 | 0.00 | 2.77 | 0.00 | 73 | 1010.8 |
| 20260507005331 | 14 | 211 | 0.0 | 0.0 | 0.00 | 2.77 | 0.00 | 72 | 1010.9 |
| 20260507004831 | 14 | 211 | 0.0 | 0.0 | 0.00 | 2.77 | 0.00 | 71 | 1010.9 |
| 20260507004330 | 15 | 211 | 0.0 | 0.0 | 0.00 | 2.77 | 0.00 | 70 | 1010.9 |
| 20260507003830 | 15 | 211 | 0.0 | 0.0 | 0.00 | 2.77 | 0.00 | 70 | 1010.9 |
| 20260507003330 | 15 | 211 | 0.0 | 0.0 | 0.00 | 2.77 | 0.00 | 70 | 1011.0 |
| 20260507002829 | 15 | 211 | 0.0 | 0.0 | 0.00 | 2.77 | 0.00 | 69 | 1010.9 |
| 20260507002329 | 15 | 212 | 0.0 | 0.0 | 0.00 | 2.77 | 0.00 | 69 | 1010.7 |
| 20260507001829 | 15 | 211 | 0.0 | 0.0 | 0.00 | 2.77 | 0.00 | 69 | 1010.8 |
| 20260507001329 | 15 | 212 | 0.0 | 0.0 | 0.00 | 2.77 | 0.00 | 69 | 1010.9 |
| 20260507000828 | 15 | 206 | 0.0 | 0.0 | 0.00 | 2.77 | 0.00 | 69 | 1010.9 |
| 20260507000328 | 15 | 209 | 0.0 | 0.0 | 0.00 | 2.77 | 0.00 | 69 | 1010.9 |
| 20260506235828 | 14 | 204 | 0.0 | 0.0 | 0.00 | 3.10 | 0.00 | 70 | 1010.9 |
| 20260506235327 | 14 | 211 | 0.0 | 0.0 | 0.00 | 3.10 | 0.00 | 70 | 1010.9 |
| 20260506234827 | 14 | 211 | 0.0 | 0.0 | 0.00 | 3.10 | 0.00 | 71 | 1010.9 |
| 20260506234327 | 14 | 211 | 0.0 | 0.0 | 0.00 | 3.10 | 0.00 | 70 | 1010.8 |
| 20260506233826 | 14 | 210 | 0.0 | 0.0 | 0.00 | 3.10 | 0.00 | 70 | 1010.9 |
| 20260506233326 | 15 | 210 | 0.0 | 0.0 | 0.00 | 3.10 | 0.00 | 69 | 1010.9 |
| 20260506232826 | 14 | 210 | 0.0 | 0.0 | 0.00 | 3.10 | 0.00 | 69 | 1011.0 |
| 20260506232326 | 14 | 210 | 0.0 | 0.0 | 0.00 | 3.10 | 0.00 | 69 | 1011.0 |
| 20260506231825 | 14 | 210 | 0.0 | 0.0 | 0.00 | 3.10 | 0.00 | 69 | 1011.0 |
| 20260506231325 | 15 | 211 | 0.0 | 0.0 | 0.00 | 3.10 | 0.00 | 69 | 1011.0 |
| 20260506230825 | 15 | 211 | 0.0 | 0.0 | 0.00 | 3.10 | 0.00 | 67 | 1011.1 |
| 20260506230325 | 15 | 210 | 0.0 | 0.0 | 0.00 | 3.10 | 0.00 | 67 | 1011.1 |
| 20260506225824 | 15 | 209 | 0.0 | 0.0 | 0.00 | 3.12 | 0.00 | 67 | 1011.1 |
| 20260506225324 | 15 | 210 | 0.0 | 0.0 | 0.00 | 3.12 | 0.00 | 67 | 1011.1 |
| 20260506224824 | 15 | 214 | 0.0 | 0.0 | 0.00 | 3.12 | 0.00 | 67 | 1011.1 |
| 20260506224323 | 15 | 216 | 0.0 | 0.0 | 0.00 | 3.12 | 0.00 | 68 | 1011.0 |
| 20260506223823 | 15 | 239 | 0.0 | 0.0 | 0.00 | 3.12 | 0.00 | 67 | 1011.0 |
| 20260506223323 | 15 | 240 | 0.0 | 0.0 | 0.00 | 3.12 | 0.00 | 67 | 1011.0 |
| 20260506222822 | 15 | 240 | 0.0 | 0.0 | 0.00 | 3.12 | 0.00 | 66 | 1011.0 |
| 20260506222322 | 15 | 243 | 0.0 | 0.0 | 0.00 | 3.12 | 0.00 | 66 | 1010.9 |